Change the Weather History Date:

Sunday, June 30, 2013

  Actual Average Record
Temperature  
Mean Temperature 44 °F -  
Max Temperature 48 °F 46 °F 72 °F (2004)
Min Temperature 41 °F 39 °F 36 °F (1998)
Degree Days  
Heating Degree Days 20    
Moisture  
Dew Point 46 °F    
Average Humidity 100    
Maximum Humidity 100    
Minimum Humidity 99    
Precipitation  
Precipitation 0.08 in - - ()
Sea Level Pressure  
Sea Level Pressure 29.44 in    
Wind  
Wind Speed 26 mph (South)    
Max Wind Speed 37 mph    
Max Gust Speed 43 mph    
Visibility 2 miles    
Events Fog , Rain    
Averages and records for this station are not official NWS values.
T = Trace of Precipitation, MM = Missing Value Source: NWS Daily Summary

Daily Weather History Graph

Daily Weather History Graph

Search for Another Location

Airport or City:

Trip Planner

Search our weather history database for the weather conditions in past years. The results will help you decide how hot, cold, wet, or windy it might be!

Date:

Astronomy

Jun. 30, 2013 Rise Set
Actual Time 4:02 AM AKDT 2:25 AM AKDT
Civil Twilight Sun does not rise Sun does not rise
Nautical Twilight Sun does not rise Sun does not rise
Astronomical Twilight Sun does not rise Sun does not rise
Moon 2:10 AM AKDT (6/30) 5:09 PM AKDT (6/30)
Length of Visible Light 24h 00m
Length of Day
22h 22m
Last Quarter, 44% of the Moon is Illuminated
Jun 30
Last Quarter
Jul 7
New
Jul 15
First Quarter
Jul 22
Full
Jul 29
Last Quarter

Hourly Weather History & Observations

Time (AKDT) Temp. Windchill Dew Point Humidity Pressure Visibility Wind Dir Wind Speed Gust Speed Precip Events Conditions
12:09 AM 46.4 °F 38.1 °F 46.4 °F 100% 29.57 in 0.8 mi SSE 24.2 mph 29.9 mph N/A Rain Light Rain
12:49 AM 46.4 °F 37.5 °F 46.4 °F 100% 29.56 in 3.0 mi South 27.6 mph - N/A Rain Light Rain
12:55 AM 46.4 °F 37.4 °F 46.4 °F 100% 29.56 in 2.5 mi South 28.8 mph - 0.00 in Rain Light Rain Showers
1:09 AM 46.4 °F 37.4 °F 46.4 °F 100% 29.55 in 1.5 mi South 28.8 mph 36.8 mph N/A Rain Light Rain Showers
1:50 AM 46.4 °F 37.0 °F 46.4 °F 100% 29.53 in 1.8 mi South 31.1 mph 35.7 mph N/A Rain Rain
1:55 AM 46.4 °F 37.2 °F 46.4 °F 100% 29.53 in 2.0 mi South 29.9 mph 36.8 mph 0.02 in Rain Rain
2:10 AM 46.4 °F 37.0 °F 46.4 °F 100% 29.52 in 1.0 mi South 31.1 mph 36.8 mph N/A Rain Light Rain
2:30 AM 46.4 °F 36.3 °F 46.4 °F 100% 29.51 in 2.5 mi South 36.8 mph 42.6 mph N/A Rain Light Rain
2:50 AM 46.4 °F 36.4 °F 46.4 °F 100% 29.51 in 1.2 mi South 35.7 mph 42.6 mph N/A Rain Light Rain
2:55 AM 45.9 °F 36.1 °F 45.7 °F 99% 29.51 in 0.5 mi South 32.2 mph 42.6 mph 0.02 in Rain Light Rain
3:10 AM 46.4 °F 36.4 °F 46.4 °F 100% 29.50 in 5.0 mi South 35.7 mph 40.3 mph N/A Rain Light Rain
3:50 AM 46.4 °F 37.5 °F 46.4 °F 100% 29.51 in 1.2 mi South 27.6 mph 35.7 mph N/A Rain Light Rain Showers
4:30 AM 44.6 °F 36.4 °F 44.6 °F 100% 29.49 in 0.2 mi South 20.7 mph 32.2 mph N/A Fog , Rain Light Rain Showers
4:55 AM 45.1 °F 36.0 °F 45.3 °F 100% 29.47 in 0.2 mi South 26.5 mph 34.5 mph N/A Fog , Rain Light Rain
5:10 AM 44.6 °F 34.6 °F 44.6 °F 100% 29.45 in 0.8 mi South 31.1 mph 40.3 mph N/A Rain Light Rain
5:50 AM 44.6 °F 34.4 °F 44.6 °F 100% 29.45 in 4.0 mi South 32.2 mph 40.3 mph N/A Rain Light Rain
5:55 AM 44.8 °F 34.6 °F 45.0 °F 100% 29.45 in 4.0 mi South 32.2 mph 38.0 mph 0.00 in Rain Light Rain
6:10 AM 44.6 °F 34.6 °F 44.6 °F 100% 29.45 in 9.0 mi South 31.1 mph 34.5 mph N/A   Mostly Cloudy
6:50 AM 44.6 °F 35.9 °F 44.6 °F 100% 29.44 in 1.2 mi South 23.0 mph 32.2 mph N/A Rain Light Rain
6:55 AM 43.7 °F 34.3 °F 43.9 °F 100% 29.44 in 0.8 mi South 25.3 mph 31.1 mph N/A Rain Light Rain
7:30 AM 42.8 °F 32.3 °F 42.8 °F 100% 29.44 in 0.2 mi South 29.9 mph 35.7 mph N/A Fog , Rain Light Rain
8:55 AM - - - N/A% 29.43 in 0.2 mi South 28.8 mph 38.0 mph N/A Fog , Rain Light Rain
9:55 AM - - - N/A% 29.43 in 0.2 mi South 28.8 mph 39.1 mph 0.00 in Fog , Rain Light Rain
10:10 AM - - - N/A% 29.43 in 0.5 mi South 26.5 mph 35.7 mph N/A Fog , Rain Light Rain
10:50 AM - - - N/A% 29.43 in 4.0 mi South 25.3 mph 32.2 mph N/A Rain Light Rain Showers
10:55 AM 41.9 °F 32.1 °F 42.3 °F 100% 29.43 in 5.0 mi South 24.2 mph 32.2 mph N/A   Mostly Cloudy
11:55 AM 42.4 °F 33.3 °F 42.8 °F 100% 29.42 in 5.0 mi South 21.9 mph 27.6 mph N/A   Overcast
12:55 PM 42.8 °F 34.8 °F 42.8 °F 100% 29.43 in 10.0 mi South 17.3 mph - N/A   Overcast
1:50 PM 42.8 °F 35.4 °F 42.8 °F 100% 29.42 in 7.0 mi South 15.0 mph - N/A   Overcast
1:55 PM 43.3 °F 36.1 °F 43.5 °F 100% 29.42 in 1.2 mi South 15.0 mph - N/A Rain Light Rain
2:10 PM 44.6 °F 37.4 °F 44.6 °F 100% 29.42 in 0.2 mi South 16.1 mph - N/A Fog , Rain Light Rain
2:50 PM 44.6 °F 35.7 °F 44.6 °F 100% 29.41 in 7.0 mi South 24.2 mph - N/A Rain Light Rain Showers
2:55 PM 44.2 °F 35.9 °F 44.4 °F 100% 29.41 in 6.0 mi South 20.7 mph - N/A Rain Light Rain Showers
3:10 PM 44.6 °F 35.9 °F 44.6 °F 100% 29.41 in 1.0 mi South 23.0 mph - N/A Rain Light Rain Showers
3:30 PM 44.6 °F 35.9 °F 44.6 °F 100% 29.40 in 0.2 mi South 23.0 mph - N/A Fog , Rain Light Rain Showers
3:55 PM 44.8 °F 36.9 °F 45.1 °F 100% 29.40 in 0.5 mi SSE 19.6 mph - N/A Fog Fog
4:10 PM 44.6 °F 35.9 °F 44.6 °F 100% 29.39 in 8.0 mi South 23.0 mph - N/A   Mostly Cloudy
4:55 PM 45.3 °F 36.7 °F 45.3 °F 100% 29.38 in 10.0 mi South 24.2 mph - N/A   Overcast
5:10 PM 46.4 °F 37.9 °F 46.4 °F 100% 29.37 in 0.2 mi South 25.3 mph - N/A Fog , Rain Light Rain
6:55 PM 47.3 °F - 47.7 °F 100% 29.36 in 3.0 mi South 23.0 mph - 0.00 in Fog , Rain Light Rain
7:10 PM 48.2 °F - 48.2 °F 100% 29.36 in 0.5 mi South 21.9 mph - N/A Fog , Rain Light Rain
7:30 PM 48.2 °F - 48.2 °F 100% 29.36 in 4.0 mi SSE 24.2 mph - N/A Rain Light Rain
7:55 PM 47.5 °F - 47.7 °F 100% 29.36 in 5.0 mi SSE 23.0 mph - 0.02 in Rain Light Rain
8:50 PM 48.2 °F - 48.2 °F 100% 29.35 in 0.2 mi SSE 18.4 mph - N/A Fog , Rain Light Rain
8:55 PM 47.7 °F - 48.0 °F 100% 29.35 in 0.5 mi SSE 18.4 mph - 0.02 in Fog , Rain Light Rain
9:10 PM 48.2 °F - 48.2 °F 100% 29.35 in 0.2 mi SSE 17.3 mph - N/A Fog , Rain Light Rain
9:30 PM 48.2 °F - 48.2 °F 100% 29.35 in 0.2 mi SSE 16.1 mph - N/A Fog , Rain Light Rain
9:55 PM 48.0 °F - 48.0 °F 100% 29.35 in 0.2 mi South 21.9 mph - 0.00 in Fog , Rain Light Rain
10:55 PM 46.6 °F - 46.6 °F 100% 29.35 in 0.2 mi South 15.0 mph - 0.00 in Fog , Rain Light Rain